| time (UTC) | temp F | wind direction | speed MPH | gust MPH | rain 1hr in | rain 24hr in | rain mn in | humidity % | barometer mb |
| 20260504024555 | 55 | 184 | 3.0 | 14.0 | 0.00 | 0.05 | 0.05 | 63 | 1014.2 |
| 20260504023049 | 56 | 134 | 4.0 | 12.0 | 0.00 | 0.05 | 0.05 | 62 | 1014.2 |
| 20260504021554 | 56 | 179 | 3.0 | 10.0 | 0.00 | 0.05 | 0.05 | 61 | 1014.2 |
| 20260504020117 | 56 | 148 | 3.0 | 10.0 | 0.00 | 0.05 | 0.05 | 60 | 1014.3 |
| 20260504014547 | 56 | 146 | 3.0 | 10.0 | 0.00 | 0.05 | 0.05 | 60 | 1014.3 |
| 20260504013110 | 57 | 189 | 2.0 | 8.0 | 0.00 | 0.05 | 0.05 | 59 | 1014.4 |
| 20260504011552 | 57 | 0 | 4.0 | 12.0 | 0.00 | 0.05 | 0.05 | 58 | 1014.3 |
| 20260504010047 | 57 | 184 | 3.0 | 11.0 | 0.00 | 0.05 | 0.05 | 57 | 1014.4 |
| 20260504004548 | 57 | 195 | 2.0 | 8.0 | 0.00 | 0.05 | 0.05 | 57 | 1014.3 |
| 20260504003047 | 57 | 175 | 5.0 | 10.0 | 0.00 | 0.05 | 0.05 | 57 | 1014.5 |
| 20260504001550 | 57 | 144 | 1.0 | 7.0 | 0.00 | 0.05 | 0.05 | 57 | 1014.4 |
| 20260504000049 | 57 | 163 | 1.0 | 9.0 | 0.00 | 0.05 | 0.05 | 58 | 1014.5 |
| 20260503234544 | 58 | 151 | 2.0 | 12.0 | 0.00 | 0.05 | 0.05 | 58 | 1014.6 |
| 20260503233048 | 57 | 0 | 1.0 | 9.0 | 0.00 | 0.05 | 0.05 | 58 | 1014.7 |
| 20260503231548 | 55 | 213 | 1.0 | 7.0 | 0.00 | 0.05 | 0.05 | 62 | 1014.6 |
| 20260503230048 | 54 | 0 | 0.0 | 3.0 | 0.00 | 0.05 | 0.05 | 70 | 1014.5 |
| 20260503224555 | 54 | 0 | 1.0 | 5.0 | 0.00 | 0.05 | 0.05 | 70 | 1014.6 |
| 20260503223051 | 54 | 123 | 1.0 | 9.0 | 0.00 | 0.05 | 0.05 | 70 | 1015.1 |
| 20260503221600 | 54 | 121 | 3.0 | 8.0 | 0.00 | 0.05 | 0.05 | 69 | 1015.2 |
| 20260503220052 | 56 | 164 | 3.0 | 7.0 | 0.00 | 0.05 | 0.05 | 67 | 1015.3 |
| 20260503214547 | 55 | 180 | 4.0 | 10.0 | 0.00 | 0.05 | 0.05 | 69 | 1015.5 |
| 20260503213051 | 54 | 121 | 3.0 | 7.0 | 0.00 | 0.05 | 0.05 | 67 | 1016.0 |
| 20260503211549 | 54 | 0 | 1.0 | 4.0 | 0.00 | 0.05 | 0.05 | 76 | 1016.3 |
| 20260503210053 | 52 | 132 | 0.0 | 4.0 | 0.00 | 0.05 | 0.05 | 79 | 1016.4 |
| 20260503204614 | 51 | 0 | 0.0 | 3.0 | 0.01 | 0.05 | 0.05 | 82 | 1016.8 |
| 20260503203052 | 50 | 0 | 0.0 | 2.0 | 0.05 | 0.05 | 0.05 | 82 | 1017.1 |
| 20260503201549 | 49 | 0 | 0.0 | 4.0 | 0.05 | 0.05 | 0.05 | 84 | 1017.5 |
| 20260503200052 | 49 | 0 | 0.0 | 1.0 | 0.05 | 0.05 | 0.05 | 78 | 1018.3 |
| 20260503194551 | 50 | 0 | 0.0 | 7.0 | 0.03 | 0.03 | 0.03 | 74 | 1018.8 |
| 20260503193056 | 52 | 40 | 2.0 | 14.0 | 0.00 | 0.00 | 0.00 | 68 | 1019.5 |
| 20260503191608 | 55 | 128 | 6.0 | 17.0 | 0.00 | 0.00 | 0.00 | 57 | 1019.3 |
| 20260503190054 | 57 | 165 | 4.0 | 13.0 | 0.00 | 0.00 | 0.00 | 47 | 1018.4 |
| 20260503184548 | 58 | 165 | 4.0 | 17.0 | 0.00 | 0.00 | 0.00 | 44 | 1018.3 |
| 20260503183050 | 58 | 251 | 4.0 | 16.0 | 0.00 | 0.00 | 0.00 | 44 | 1018.5 |
| 20260503181553 | 59 | 153 | 4.0 | 15.0 | 0.00 | 0.00 | 0.00 | 43 | 1018.7 |
| 20260503180100 | 60 | 261 | 6.0 | 17.0 | 0.00 | 0.00 | 0.00 | 40 | 1018.8 |
| 20260503174554 | 60 | 336 | 6.0 | 17.0 | 0.00 | 0.00 | 0.00 | 41 | 1019.2 |
| 20260503173051 | 59 | 206 | 4.0 | 17.0 | 0.00 | 0.00 | 0.00 | 40 | 1019.3 |
| 20260503171554 | 61 | 190 | 3.0 | 21.0 | 0.00 | 0.00 | 0.00 | 42 | 1019.4 |
| 20260503160107 | 58 | 130 | 4.0 | 18.0 | 0.00 | 0.00 | 0.00 | 45 | 1020.4 |
| 20260503081551 | 37 | 0 | 0.0 | 1.0 | 0.00 | 0.00 | 0.00 | 74 | 1020.2 |
| 20260503071603 | 37 | 0 | 0.0 | 2.0 | 0.00 | 0.00 | 0.00 | 73 | 1020.3 |
| 20260503070318 | 37 | 0 | 0.0 | 2.0 | 0.00 | 0.00 | 0.00 | 73 | 1020.4 |
| 20260503054613 | 36 | 0 | 0.0 | 1.0 | 0.00 | 0.00 | 0.00 | 76 | 1020.9 |
| 20260503053053 | 36 | 0 | 0.0 | 1.0 | 0.00 | 0.00 | 0.00 | 77 | 1021.1 |
| 20260503051553 | 37 | 0 | 0.0 | 0.0 | 0.00 | 0.00 | 0.00 | 75 | 1021.0 |
| 20260503050052 | 37 | 0 | 0.0 | 0.0 | 0.00 | 0.00 | 0.00 | 74 | 1021.0 |
| 20260503044549 | 37 | 0 | 0.0 | 0.0 | 0.00 | 0.00 | 0.00 | 74 | 1021.2 |
| 20260503043055 | 37 | 0 | 0.0 | 0.0 | 0.00 | 0.00 | 0.00 | 73 | 1021.0 |
| 20260503041550 | 38 | 0 | 0.0 | 0.0 | 0.00 | 0.00 | 0.00 | 71 | 1021.1 |
| 20260503040055 | 38 | 0 | 0.0 | 0.0 | 0.00 | 0.00 | 0.00 | 72 | 1021.1 |
| 20260503034550 | 38 | 0 | 0.0 | 0.0 | 0.00 | 0.00 | 0.00 | 69 | 1021.1 |
| 20260503033051 | 39 | 0 | 0.0 | 0.0 | 0.00 | 0.00 | 0.00 | 67 | 1021.1 |
| 20260503031547 | 39 | 0 | 0.0 | 0.0 | 0.00 | 0.00 | 0.00 | 68 | 1021.2 |
| 20260503030046 | 40 | 0 | 0.0 | 0.0 | 0.00 | 0.00 | 0.00 | 65 | 1021.3 |